THORAD AGENA D DEB, 4777

Orbit data source: Space-Track

THORAD AGENA D DEB, 4777 is space debris in SSO originally from a launch on Wed, 08 Apr 1970 UTC launched from the Air Force Western Test Range (AFWTR). Debris objects in space refer to the collection of defunct objects orbiting the Earth. Examples of debris include non-operational satellites, rocket bodies, and fragments generated from explosions, collisions, or faulty payload assembly.

Loading next visibility...
Identifier
4777, 1970-025DX
Orbit
SSO
Country
Flag of USUS
Related business
Manufacturer
Unknown
Mission
Spacecraft
Bus & Motor
Unknown
Mass
Unknown
Launch date (UTC)
1970-04-08 (56 years ago)
Launch vehicle
Unknown
Launch site
Air Force Western Test Range (AFWTR)
Object type
Payload
Rocket body
Debris
Shape & HBR
Unknown shape, 0.1 m
Radar Cross Section
Small (<0.1 m²)

Expand to show TLE details & history
Last TLE update: 14 hours ago

TLE from 14 hours ago
0 THORAD AGENA D DEB
1 04777U 70025DX  25351.51788351  .00002059  00000-0  16764-2 0  9995
2 04777  99.9390  87.4134 0012689 200.2040 172.7137 13.91120726781777
Epoch: 2025-12-17T12:25Z
TLE epoch observation values (Epoch: 2025-12-17T12:25:45.135Z)
Latitude
12.70177°
Longitude
172.33706°
Altitude
935.98 km
Speed
7.38 km/s
True Right ascension
05h 40m 38s
True Declination
12° 37' 48"
Sunlit
Object was in full shadow at epoch
Visualization orbit readout
Latitude
Unknown
Longitude
Unknown
Altitude
Unknown
Speed
Unknown
Apparent Right ascension
Unknown
Apparent Declination
Unknown
Sunlit
N/A
Visualization observer readout
Local Sidereal Time
01:10:23
Azimuth
Unknown
Elevation
Unknown
Doppler factor
Unknown
Orbital elements
Apogee altitude
931.228 km
Perigee altitude
912.702 km
Semi-major axis
7,300.102 km
Eccentricity
0.00127
Inclination
99.939°
RAAN
87.4134°
Arg. of periapsis
200.204°
True anomaly
172.73211°
Mean anomaly
172.7137°
Eccentric anomaly
172.72291°
Mean motion
3.47976 °/min
Orbital period
103.46 mins
BSTAR
0.0016764

Documentation

Showing up to 5 results
|